Parker Ford, PA

3:22 AM EST on February 09, 2016 (GMT -0500)
Pottstown Limerick

Weather History for KPTW - May, 2013

Change the Weather History Date:

Friday, May 24, 2013

  Actual Average (KRDG) Record (KRDG)
Temperature  
Mean Temperature 54 °F 64 °F  
Max Temperature 63 °F 75 °F 92 °F (1975)
Min Temperature 45 °F 53 °F 38 °F (1963)
Degree Days  
Heating Degree Days 11 4  
Month to date heating degree days 149  
Since 1 July heating degree days 5347  
Cooling Degree Days 0 2  
Month to date cooling degree days 33  
Year to date cooling degree days 42  
Growing Degree Days 4 (Base 50)    
Moisture  
Dew Point 50 °F    
Average Humidity 85    
Maximum Humidity 100    
Minimum Humidity 61    
Precipitation  
Precipitation 0.06 in 0.18 in 1.96 in (1897)
Month to date precipitation 3.07  
Year to date precipitation 15.85  
Sea Level Pressure  
Sea Level Pressure 29.87 in    
Wind  
Wind Speed 5 mph (NW)    
Max Wind Speed 18 mph    
Max Gust Speed 29 mph    
Visibility 9 miles    
Events Rain    
T = Trace of Precipitation, MM = Missing Value Source: NWS Daily Summary

Daily Weather History Graph

Daily Weather History Graph

Search for Another Location

Airport or City:

Trip Planner

Search our weather history database for the weather conditions in past years. The results will help you decide how hot, cold, wet, or windy it might be!

Date:

Astronomy

May. 24, 2013 Rise Set
Actual Time 5:39 AM EDT 8:19 PM EDT
Civil Twilight 5:07 AM EDT 8:51 PM EDT
Nautical Twilight 4:27 AM EDT 9:31 PM EDT
Astronomical Twilight 3:43 AM EDT 10:16 PM EDT
Moon 7:59 PM EDT (5/24) 5:09 AM EDT (5/24)
Length of Visible Light 15h 44m
Length of Day
14h 40m
Full, 100% of the Moon is Illuminated
May 24
Full
May 25
Full
May 31
Last Quarter
Jun 8
New
Jun 16
First Quarter

Hourly Weather History & Observations

Time (EDT) Temp. Windchill Dew Point Humidity Pressure Visibility Wind Dir Wind Speed Gust Speed Precip Events Conditions
12:54 AM 63.0 °F - 61.0 °F 93% 29.75 in 10.0 mi Calm Calm - 0.00 in   Scattered Clouds
1:54 AM 63.0 °F - 61.0 °F 93% 29.74 in 10.0 mi Calm Calm - N/A   Scattered Clouds
2:54 AM 62.1 °F - 61.0 °F 96% 29.73 in 9.0 mi Calm Calm - N/A   Clear
3:54 AM 62.1 °F - 61.0 °F 96% 29.73 in 8.0 mi Calm Calm - N/A   Overcast
4:54 AM 62.1 °F - 61.0 °F 96% 29.73 in 9.0 mi Calm Calm - 0.01 in   Overcast
5:54 AM 61.0 °F - 61.0 °F 100% 29.74 in 4.0 mi Calm Calm - 0.00 in   Scattered Clouds
6:04 AM 60.8 °F - 60.8 °F 100% 29.75 in 2.0 mi Calm Calm - N/A   Mostly Cloudy
6:21 AM 62.6 °F - 60.8 °F 94% 29.75 in 4.0 mi Calm Calm - N/A   Mostly Cloudy
6:54 AM 62.1 °F - 61.0 °F 96% 29.76 in 6.0 mi WNW 3.5 mph - N/A   Mostly Cloudy
7:43 AM 62.6 °F - 62.6 °F 100% 29.77 in 4.0 mi Calm Calm - N/A   Overcast
7:54 AM 63.0 °F - 62.1 °F 97% 29.77 in 5.0 mi Calm Calm - N/A   Overcast
8:38 AM 62.6 °F - 62.6 °F 100% 29.79 in 5.0 mi WNW 8.1 mph - 0.02 in Rain Light Rain
8:54 AM 57.0 °F - 55.9 °F 96% 29.81 in 10.0 mi NW 10.4 mph 25.3 mph 0.03 in Rain Light Rain
9:08 AM 55.4 °F - 53.6 °F 94% 29.84 in 10.0 mi NW 9.2 mph 21.9 mph 0.00 in   Overcast
9:54 AM 53.1 °F - 52.0 °F 96% 29.86 in 10.0 mi NNW 9.2 mph 24.2 mph 0.00 in Rain Light Rain
10:32 AM 51.8 °F - 48.2 °F 88% 29.88 in 10.0 mi NNW 6.9 mph - 0.01 in Rain Light Rain
10:54 AM 52.0 °F - 48.0 °F 86% 29.89 in 10.0 mi NNW 9.2 mph - 0.01 in   Overcast
11:54 AM 52.0 °F - 48.0 °F 86% 29.89 in 10.0 mi NW 9.2 mph 19.6 mph 0.00 in Rain Light Rain
12:54 PM 50.0 °F - 46.0 °F 86% 29.92 in 10.0 mi NW 8.1 mph 17.3 mph 0.00 in Rain Light Rain
1:54 PM 51.1 °F - 45.0 °F 80% 29.92 in 10.0 mi NNW 13.8 mph 24.2 mph 0.01 in Rain Light Rain
2:54 PM 51.1 °F - 44.1 °F 77% 29.93 in 10.0 mi NW 11.5 mph 20.7 mph 0.00 in Rain Light Rain
3:22 PM 51.8 °F - 41.0 °F 67% 29.95 in 10.0 mi NW 15.0 mph 23.0 mph 0.00 in   Overcast
3:54 PM 52.0 °F - 41.0 °F 66% 29.94 in 10.0 mi NNW 18.4 mph 28.8 mph 0.00 in   Overcast
4:54 PM 52.0 °F - 39.0 °F 61% 29.95 in 10.0 mi NNW 11.5 mph 25.3 mph N/A   Overcast
5:54 PM 51.1 °F - 39.0 °F 63% 29.97 in 10.0 mi NNW 11.5 mph 19.6 mph N/A   Overcast
6:54 PM 51.1 °F - 37.9 °F 61% 29.99 in 10.0 mi NNW 13.8 mph 24.2 mph N/A   Overcast
7:54 PM 48.9 °F - 36.0 °F 61% 30.01 in 10.0 mi NNW 15.0 mph 26.5 mph N/A   Overcast
8:54 PM 46.9 °F - 36.0 °F 66% 30.04 in 10.0 mi NW 12.7 mph 27.6 mph 0.00 in   Overcast
9:54 PM 46.0 °F 41.0 °F 37.9 °F 73% 30.06 in 10.0 mi NW 10.4 mph 17.3 mph N/A   Overcast
10:54 PM 45.0 °F 40.1 °F 39.0 °F 80% 30.06 in 10.0 mi NW 9.2 mph 17.3 mph 0.00 in Rain Light Rain
11:54 PM 45.0 °F 39.7 °F 39.9 °F 82% 30.05 in 10.0 mi WNW 10.4 mph 17.3 mph 0.00 in Rain Light Rain